TimeEST,TemperatureF,Dew PointF,Humidity,Sea Level PressureIn,VisibilityMPH,Wind Direction,Wind SpeedMPH,Gust SpeedMPH,PrecipitationIn,Events,Conditions,WindDirDegrees,DateUTC
12:51 AM,23.0,8.1,53,30.11,10.0,Calm,Calm,-,N/A,,Overcast,0,2013-01-24 05:51:00
1:51 AM,21.9,9.0,58,30.12,10.0,Calm,Calm,-,N/A,,Overcast,0,2013-01-24 06:51:00
2:51 AM,21.0,9.0,60,30.14,10.0,SSW,3.5,-,N/A,,Overcast,210,2013-01-24 07:51:00
3:51 AM,21.9,12.0,66,30.21,10.0,NNW,11.5,21.9,N/A,,Overcast,340,2013-01-24 08:51:00
4:51 AM,21.9,12.0,66,30.26,6.0,NNW,13.8,21.9,0.00,Snow,Light Snow,330,2013-01-24 09:51:00
5:16 AM,21.2,12.2,68,30.25,6.0,NNW,9.2,-,0.00,Snow,Light Snow,330,2013-01-24 10:16:00
5:23 AM,19.4,12.2,74,30.26,9.0,NW,9.2,-,0.00,,Mostly Cloudy,310,2013-01-24 10:23:00
5:51 AM,21.0,9.0,60,30.32,10.0,NW,12.7,19.6,0.00,,Mostly Cloudy,310,2013-01-24 10:51:00
6:51 AM,19.4,6.8,58,30.33,10.0,NNW,12.7,18.4,N/A,,Partly Cloudy,330,2013-01-24 11:51:00
7:51 AM,18.0,6.1,60,30.41,10.0,WNW,6.9,-,N/A,,Clear,290,2013-01-24 12:51:00
8:51 AM,19.0,5.0,54,30.46,10.0,Variable,6.9,17.3,N/A,,Partly Cloudy,0,2013-01-24 13:51:00
9:51 AM,19.0,6.1,57,30.50,10.0,North,11.5,18.4,N/A,,Clear,360,2013-01-24 14:51:00
10:51 AM,19.9,6.1,55,30.54,10.0,North,8.1,-,N/A,,Clear,10,2013-01-24 15:51:00
11:51 AM,19.9,6.1,55,30.56,10.0,NNW,6.9,-,N/A,,Mostly Cloudy,330,2013-01-24 16:51:00
12:51 PM,21.9,5.0,48,30.54,10.0,NE,5.8,-,N/A,,Scattered Clouds,50,2013-01-24 17:51:00
1:51 PM,23.0,3.9,44,30.53,10.0,ENE,5.8,-,N/A,,Mostly Cloudy,70,2013-01-24 18:51:00
2:51 PM,24.1,3.0,40,30.51,10.0,Calm,Calm,-,N/A,,Clear,0,2013-01-24 19:51:00
3:51 PM,25.0,1.9,37,30.53,10.0,North,3.5,-,N/A,,Clear,10,2013-01-24 20:51:00
4:51 PM,24.1,1.9,38,30.52,10.0,Calm,Calm,-,N/A,,Clear,0,2013-01-24 21:51:00
5:51 PM,21.9,1.9,42,30.53,10.0,Calm,Calm,-,N/A,,Clear,0,2013-01-24 22:51:00
6:51 PM,21.9,1.9,42,30.56,10.0,Calm,Calm,-,N/A,,Clear,0,2013-01-24 23:51:00
7:51 PM,19.9,1.9,46,30.56,10.0,Calm,Calm,-,N/A,,Clear,0,2013-01-25 00:51:00
8:51 PM,19.0,3.0,50,30.54,10.0,East,4.6,-,N/A,,Clear,90,2013-01-25 01:51:00
9:51 PM,19.0,3.9,52,30.53,10.0,East,3.5,-,N/A,,Clear,80,2013-01-25 02:51:00
10:51 PM,19.0,3.9,52,30.51,10.0,East,4.6,-,N/A,,Clear,90,2013-01-25 03:51:00
11:51 PM,19.0,3.9,52,30.50,10.0,East,4.6,-,N/A,,Clear,100,2013-01-25 04:51:00